South Holston Observed Data For Previous 48 Hours

Caption
Day and Hour Reservoir Elevation (behind dam)* Tailwater Elevation (below dam)* Average Hourly Discharge*
11/17/2018 2 AM EST 1,721.09 1,489.23 2,574
11/17/2018 3 AM EST 1,721.10 1,489.22 2,567
11/17/2018 4 AM EST 1,721.10 1,489.19 2,568
11/17/2018 5 AM EST 1,721.10 1,489.20 2,574
11/17/2018 6 AM EST 1,721.11 1,489.20 2,567
11/17/2018 7 AM EST 1,721.11 1,489.16 2,567
11/17/2018 8 AM EST 1,721.12 1,489.13 2,564
11/17/2018 9 AM EST 1,721.12 1,489.17 2,571
11/17/2018 10 AM EST 1,721.12 1,489.19 2,567
11/17/2018 11 AM EST 1,721.12 1,489.13 2,566
11/17/2018 12 PM EST 1,721.12 1,489.11 2,564
11/17/2018 1 PM EST 1,721.12 1,489.15 2,559
11/17/2018 2 PM EST 1,721.12 1,489.11 2,565
11/17/2018 3 PM EST 1,721.12 1,489.19 2,557
11/17/2018 4 PM EST 1,721.12 1,489.19 2,579
11/17/2018 5 PM EST 1,721.12 1,489.18 2,569
11/17/2018 6 PM EST 1,721.13 1,488.16 1,081
11/17/2018 7 PM EST 1,721.14 1,488.29 2,360
11/17/2018 8 PM EST 1,721.14 1,488.28 2,360
11/17/2018 9 PM EST 1,721.15 1,488.27 2,360
11/17/2018 10 PM EST 1,721.15 1,488.28 2,360
11/17/2018 11 PM EST 1,721.15 1,488.27 2,360
11/18/2018 12 AM EST 1,721.15 1,488.27 2,360
11/18/2018 1 AM EST 1,721.16 1,488.26 2,360
11/18/2018 2 AM EST 1,721.16 1,488.27 2,360
11/18/2018 3 AM EST 1,721.16 1,488.27 2,360
11/18/2018 4 AM EST 1,721.15 1,488.26 2,360
11/18/2018 5 AM EST 1,721.15 1,488.26 2,360
11/18/2018 6 AM EST 1,721.15 1,488.27 2,360
11/18/2018 7 AM EST 1,721.15 1,488.26 2,360
11/18/2018 8 AM EST 1,721.15 1,488.27 2,360
11/18/2018 9 AM EST 1,721.14 1,488.27 2,360
11/18/2018 10 AM EST 1,721.14 1,488.26 2,360
11/18/2018 11 AM EST 1,721.13 1,488.28 2,748
11/18/2018 12 PM EST 1,721.13 1,488.29 2,388
11/18/2018 1 PM EST 1,721.13 1,488.26 2,360
11/18/2018 2 PM EST 1,721.12 1,488.28 2,360
11/18/2018 3 PM EST 1,721.12 1,488.27 2,360
11/18/2018 4 PM EST 1,721.12 1,488.27 2,360
11/18/2018 5 PM EST 1,721.12 1,488.28 2,360
11/18/2018 6 PM EST 1,721.12 1,488.27 2,360
11/18/2018 7 PM EST 1,721.12 1,488.27 2,360
11/18/2018 8 PM EST 1,721.12 1,488.26 2,360
11/18/2018 9 PM EST 1,721.12 1,488.25 2,360
11/18/2018 10 PM EST 1,721.12 1,488.28 2,360
11/18/2018 11 PM EST 1,721.11 1,488.27 2,360
11/19/2018 12 AM EST 1,721.11 1,488.26 2,360
11/19/2018 1 AM EST 1,721.10 1,488.26 2,360
11/19/2018 2 AM EST 1,721.10 1,488.28 2,360
11/19/2018 3 AM EST 1,721.10 1,488.26 2,360
11/19/2018 4 AM EST 1,721.09 1,488.26 2,360
11/19/2018 5 AM EST 1,721.09 1,488.27 2,360
11/19/2018 6 AM EST 1,721.08 1,488.26 2,360
11/19/2018 7 AM EST 1,721.08 1,488.27 2,360
11/19/2018 8 AM EST 1,721.07 1,488.27 2,360
11/19/2018 9 AM EST 1,721.07 1,488.28 2,360
11/19/2018 10 AM EST 1,721.06 1,488.27 2,360
11/19/2018 11 AM EST 1,721.06 - 999.00 2,360
11/19/2018 12 PM EST 1,721.05 1,488.26 2,360

Elevations are in feet above sea level. Discharges are in cubic feet per second and are reported at the end of the hour.